Hourly Data Report for October 15, 2013

All times are specified in Local Standard Time (LST). Add 1 hour to adjust for Daylight Saving Time where and when it is observed.

CAPE DORSET A
NUNAVUT

64°13'49.000" N
76°31'30.000" W
48.20 m
2400637
71366
YTE

Download Data

Hourly Data (October 2013)
Hourly Data Report for October 15, 2013
Temp Definition
°C
Dew Point Temp Definition
°C
Rel Hum Definition
%
Wind Dir Definition
10's deg

Wind Spd Definition
km/h
Visibility Definition
km
Stn Press Definition
kPa
Hmdx Definition


Wind Chill Definition


Weather Definition


TIME
00:00 Legend Double Dagger 1.4 0.1 91 14 32 16.1 99.12     LegendNANA
01:00 Legend Double Dagger 1.3 0.0 91 15 37 16.1 99.16     LegendNANA
02:00 Legend Double Dagger 1.0 0.0 93 15 32 16.1 99.19     LegendNANA
03:00 Legend Double Dagger 1.0 -0.2 92 14 33 16.1 99.18     LegendNANA
04:00 Legend Double Dagger 0.7 0.1 96 15 37 16.1 99.19     LegendNANA
05:00 Legend Double Dagger 0.5 0.1 97 15 37 8.1 99.21     LegendNANA
06:00 Legend Double Dagger 0.7 0.1 96 15 35 16.1 99.24     LegendNANA
07:00 Legend Double Dagger 0.8 0.1 95 16 33 16.1 99.26     LegendNANA
08:00 Legend Double Dagger 0.8 0.2 96 16 35 3.6 99.30     LegendNANA
09:00 Legend Double Dagger 0.9 0.5 97 17 28 16.1 99.36     LegendNANA
10:00 Legend Double Dagger 1.0 0.3 95 17 22 16.1 99.39     LegendNANA
11:00 Legend Double Dagger 1.3 -0.2 90 18 24 16.1 99.45     LegendNANA
12:00 Legend Double Dagger 1.0 0.1 94 18 22 16.1 99.51     LegendNANA
13:00 Legend Double Dagger 0.7 0.1 96 20 21 4.8 99.57     LegendNANA
14:00 Legend Double Dagger 0.9 0.3 96 20 28 3.2 99.60     LegendNANA
15:00 Legend Double Dagger 1.1 0.1 93 20 28 16.1 99.65     LegendNANA
16:00 Legend Double Dagger 0.8 0.2 96 22 13 4.0 99.71     LegendNANA
17:00 Legend Double Dagger 0.8 -0.1 94 20 18 8.1 99.77     LegendNANA
18:00 Legend Double Dagger 0.6 0.2 97 20 15 3.6 99.82     LegendNANA
19:00 Legend Double Dagger 0.6 0.0 96 20 21 16.1 99.85     LegendNANA
20:00 Legend Double Dagger 0.8 -0.4 92 21 28 16.1 99.86     LegendNANA
21:00 Legend Double Dagger 0.6 -0.7 91 20 26 16.1 99.88     LegendNANA
22:00 Legend Double Dagger 0.4 -0.6 93 20 18 16.1 99.92     LegendNANA
23:00 Legend Double Dagger 0.3 -0.6 94 19 11 16.1 99.96     LegendNANA

Notes on Data Quality.

Legend

  • E = Estimated
  • M = Missing
  • NA = Not Available
  • ‡ = Partner data that is not subject to review by the National Climate Archives
Date modified: